Content
SEND FEEDBACK

Daily
Averages
Monthly
Summary
United States of America

CENTRAL LAKE, MICHIGAN


Home > North America > United States > Michigan
Elevation: 617 feet     Latitude: 45 09N     Longitude: 085 07W

WEATHER
 
SELECT A DAY
Number of Records: 343,818;   Date Range: 1/21/01 - 12/17/14
 
SHARE

PRINT THIS DATA

[ ← Previous Day ]
WEATHER ALMANAC - NOVEMBER 29, 2013
[ Next Day → ]
[ °C ]   °F
Weather ElementAverageHighLow
Temperature22.6 °F30.6 °F (2:35 pm)11.5 °F (8:35 am)
Dewpoint17.3 °F23.2 °F (6:55 pm)9.3 °F (8:35 am)
Humidity80.7 %95 % (3:35 am)66 % (2:15 pm)
Barometer30.54 in30.62 in (10:15 am)30.46 in (12:34 am)
Wind Speed6.4 mph9.2 mph (10:34 am)
Weather ElementAverage
Visibility10 mi
Wind DirectionSSE (147.2 °)

Weather ElementTotal
Precipitation---
Heating Degree Days44 (Base 65)
Averaged from 71 records on November 29, 2013
WEATHER CONDITIONS BREAKOUT
WIND DIRECTION BREAKOUT
WEATHER BY HOUR - NOVEMBER 29, 2013
[ °C ]   °F
Local TimeTemperatureDewpointHumidityBarometerVisibilityWind DirectionWind SpeedGust SpeedPrecipitationEventsConditions
12:34 AM19.2 °F15.4 °F85 %30.46 in10.0 miSE (130°)4.6 mphOvercast
12:55 AM19.4 °F15.3 °F84 %30.47 in10.0 miSE (130°)4.6 mphOvercast
1:15 AM18.1 °F14.5 °F86 %30.47 in10.0 miSE (130°)3.5 mphOvercast
1:34 AM17.8 °F14.9 °F88 %30.47 in10.0 miSE (140°)3.5 mphOvercast
1:55 AM18.3 °F15.6 °F89 %30.47 in10.0 miSE (140°)4.6 mphOvercast
2:14 AM18.3 °F15.6 °F89 %30.48 in10.0 miSE (140°)3.5 mphOvercast
2:35 AM18.1 °F15.6 °F90 %30.49 in10.0 miSE (140°)3.5 mphOvercast
2:55 AM17.2 °F14.9 °F91 %30.50 in10.0 miSE (130°)3.5 mphOvercast
3:14 AM16.9 °F15.4 °F94 %30.50 in10.0 miSE (140°)4.6 mphMostly Cloudy
3:35 AM15.8 °F14.5 °F95 %30.51 in10.0 miSE (140°)4.6 mphMostly Cloudy
3:55 AM15.6 °F14.2 °F94 %30.51 in10.0 miSE (140°)4.6 mphScattered Clouds
4:14 AM15.8 °F14.5 °F95 %30.52 in10.0 miSE (140°)4.6 mphScattered Clouds
4:35 AM15.3 °F14.0 °F95 %30.52 in10.0 miSSE (150°)4.6 mphScattered Clouds
4:54 AM14.9 °F13.8 °F95 %30.53 in10.0 miSE (140°)4.6 mphScattered Clouds
5:15 AM13.6 °F12.2 °F94 %30.53 in10.0 miSE (140°)4.6 mphMostly Cloudy
5:35 AM14.0 °F12.7 °F95 %30.53 in10.0 miSSE (160°)5.8 mphScattered Clouds
5:54 AM14.0 °F12.7 °F95 %30.54 in10.0 miSSE (150°)4.6 mphClear
6:15 AM14.0 °F12.6 °F94 %30.55 in10.0 miSE (130°)5.8 mphClear
6:35 AM13.1 °F11.7 °F94 %30.55 in10.0 miSE (130°)5.8 mphClear
6:54 AM13.6 °F12.0 °F93 %30.56 in10.0 miSE (130°)5.8 mphClear
7:15 AM12.6 °F10.8 °F92 %30.57 in10.0 miSSE (150°)6.9 mphClear
7:35 AM12.6 °F10.8 °F92 %30.58 in10.0 miSE (130°)5.8 mphClear
7:54 AM11.8 °F9.9 °F92 %30.58 in10.0 miSE (130°)8.1 mphClear
8:15 AM11.8 °F9.9 °F92 %30.59 in10.0 miESE (120°)6.9 mphClear
8:35 AM11.5 °F9.3 °F91 %30.59 in10.0 miSE (130°)5.8 mphClear
8:54 AM12.7 °F10.4 °F90 %30.60 in10.0 miSE (130°)5.8 mphClear
9:15 AM13.8 °F11.3 °F90 %30.60 in10.0 miSE (130°)6.9 mphClear
9:34 AM15.6 °F12.7 °F88 %30.61 in10.0 miSE (130°)6.9 mphClear
9:55 AM16.7 °F13.1 °F86 %30.61 in10.0 miSE (130°)8.1 mphClear
10:15 AM18.5 °F14.4 °F84 %30.62 in10.0 miSE (140°)4.6 mphClear
10:34 AM21.0 °F15.8 °F80 %30.62 in10.0 miSE (140°)9.2 mphClear
10:55 AM21.9 °F15.6 °F77 %30.62 in10.0 miSSE (150°)8.1 mphClear
11:15 AM23.0 °F15.8 °F74 %30.62 in10.0 miSE (140°)8.1 mphClear
11:34 AM24.1 °F16.5 °F73 %30.61 in10.0 miSE (140°)8.1 mphClear
11:55 AM25.2 °F16.9 °F71 %30.61 in10.0 miSSE (150°)8.1 mphClear
12:15 PM26.2 °F17.6 °F70 %30.60 in10.0 miSE (140°)5.8 mphClear
12:34 PM27.1 °F18.3 °F69 %30.60 in10.0 miSE (140°)6.9 mphClear
12:55 PM28.0 °F18.9 °F68 %30.59 in10.0 miSE (130°)5.8 mphClear
1:15 PM28.8 °F19.0 °F67 %30.59 in10.0 miSE (140°)8.1 mphClear
1:34 PM29.3 °F19.4 °F67 %30.58 in10.0 miSSE (160°)5.8 mphClear
1:55 PM29.7 °F19.9 °F67 %30.57 in10.0 miSE (130°)8.1 mphScattered Clouds
2:15 PM30.2 °F20.1 °F66 %30.57 in10.0 miSouth (170°)8.1 mphScattered Clouds
2:35 PM30.6 °F20.3 °F66 %30.57 in10.0 miSouth (180°)4.6 mphScattered Clouds
2:55 PM30.4 °F20.7 °F67 %30.56 in10.0 miSSW (200°)6.9 mphMostly Cloudy
3:14 PM29.8 °F20.3 °F68 %30.56 in10.0 miSouth (190°)5.8 mphScattered Clouds
3:35 PM29.3 °F20.8 °F71 %30.56 in10.0 miSSE (160°)6.9 mphMostly Cloudy
3:55 PM29.3 °F21.0 °F71 %30.56 in10.0 miSouth (180°)5.8 mphOvercast
4:14 PM29.1 °F21.2 °F72 %30.56 in10.0 miSSE (160°)5.8 mphOvercast
4:35 PM29.1 °F21.6 °F73 %30.56 in10.0 miSSE (160°)6.9 mphOvercast
4:55 PM29.1 °F21.7 °F74 %30.55 in10.0 miSE (140°)4.6 mphOvercast
5:14 PM28.9 °F21.7 °F74 %30.55 in10.0 miSSE (150°)5.8 mphOvercast
5:35 PM28.9 °F21.9 °F75 %30.55 in10.0 miSSE (160°)6.9 mphOvercast
5:55 PM29.1 °F22.5 °F76 %30.55 in10.0 miSSE (160°)5.8 mphOvercast
6:14 PM29.3 °F22.8 °F77 %30.55 in10.0 miSSE (160°)6.9 mphOvercast
6:35 PM29.3 °F23.0 °F77 %30.54 in10.0 miSSE (150°)6.9 mphOvercast
6:55 PM29.3 °F23.2 °F78 %30.54 in10.0 miSSE (150°)8.1 mphOvercast
7:15 PM29.1 °F23.0 °F78 %30.53 in10.0 miSSE (160°)8.1 mphOvercast
7:35 PM29.1 °F23.0 °F78 %30.53 in10.0 miSouth (170°)9.2 mphOvercast
7:55 PM28.9 °F23.0 °F78 %30.52 in10.0 miSSE (160°)8.1 mphOvercast
8:15 PM28.8 °F22.5 °F77 %30.53 in10.0 miSouth (170°)8.1 mphOvercast
8:35 PM28.4 °F22.1 °F77 %30.52 in10.0 miSSE (160°)8.1 mphOvercast
8:54 PM28.2 °F21.7 °F77 %30.52 in10.0 miSSE (160°)9.2 mphOvercast
9:15 PM28.0 °F21.6 °F77 %30.51 in10.0 miSSE (150°)9.2 mphOvercast
9:35 PM27.9 °F21.4 °F77 %30.51 in10.0 miSSE (160°)5.8 mphOvercast
9:54 PM27.7 °F20.8 °F75 %30.50 in10.0 miSSE (150°)8.1 mphMostly Cloudy
10:15 PM27.5 °F19.9 °F73 %30.50 in10.0 miSSE (160°)8.1 mphScattered Clouds
10:35 PM27.5 °F20.1 °F74 %30.49 in10.0 miSSE (150°)8.1 mphMostly Cloudy
10:54 PM27.5 °F19.8 °F73 %30.48 in10.0 miSSE (150°)8.1 mphMostly Cloudy
11:15 PM27.3 °F19.4 °F72 %30.47 in10.0 miSE (130°)6.9 mphMostly Cloudy
11:35 PM27.1 °F19.2 °F72 %30.47 in10.0 miSSE (150°)8.1 mphOvercast
11:54 PM27.0 °F19.2 °F73 %30.47 in10.0 miSSE (150°)9.2 mphScattered Clouds
Hourly data recorded from KCVX, located miles away from Central Lake, Michigan







STORIES FROM OUR PARTNERS